QPF
0.00 0.00 0.00 0.00 0.00 0.00 0.00 0.00 0.00 0.00 0.00 0.00 0.00 0.00 0.00 0.00 0.01 0.01 0.00 0.00 0.00 0.02 0.01 0.01 0.01 0.02 0.04 0.09 0.16 0.16 0.13 0.14 0.17 0.18 0.18 0.18 0.13 0.11 0.10 0.11 0.11 0.09 0.08 0.04
0.00 0.00 0.00 0.00 0.00 0.00 0.00 0.00 0.00 0.00 0.00 0.00 0.00 0.00 0.00 0.01 0.01 0.00 0.00 0.00 0.00 0.02 0.02 0.01 0.03 0.05 0.06 0.09 0.12 0.14 0.14 0.13 0.13 0.14 0.13 0.14 0.13 0.10 0.08 0.12 0.14 0.11 0.09 0.07
0.00 0.00 0.00 0.00 0.00 0.00 0.00 0.00 0.00 0.00 0.00 0.00 0.00 0.00 0.01 0.01 0.02 0.02 0.00 0.01 0.01 0.00 0.00 0.01 0.03 0.05 0.07 0.09 0.12 0.14 0.14 0.11 0.12 0.15 0.15 0.15 0.16 0.13 0.13 0.13 0.12 0.11 0.10 0.08
0.00 0.00 0.00 0.00 0.00 0.00 0.00 0.00 0.00 0.00 0.00 0.00 0.00 0.00 0.02 0.05 0.06 0.04 0.01 0.02 0.03 0.01 0.00 0.01 0.02 0.04 0.06 0.07 0.11 0.15 0.15 0.13 0.14 0.15 0.14 0.12 0.11 0.13 0.12 0.12 0.12 0.12 0.13 0.11
0.00 0.00 0.00 0.00 0.00 0.00 0.00 0.00 0.00 0.00 0.00 0.00 0.00 0.01 0.02 0.06 0.08 0.08 0.04 0.02 0.01 0.00 0.00 0.01 0.02 0.04 0.04 0.04 0.08 0.12 0.15 0.17 0.17 0.15 0.15 0.15 0.12 0.13 0.13 0.14 0.15 0.14 0.14 0.13
0.00 0.00 0.00 0.00 0.00 0.00 0.00 0.00 0.00 0.00 0.00 0.00 0.01 0.01 0.02 0.02 0.06 0.08 0.05 0.02 0.00 0.00 0.00 0.01 0.02 0.04 0.04 0.04 0.07 0.09 0.11 0.16 0.19 0.18 0.17 0.14 0.13 0.13 0.13 0.12 0.12 0.11 0.12 0.11
0.00 0.00 0.00 0.00 0.00 0.00 0.00 0.00 0.01 0.01 0.01 0.02 0.04 0.03 0.01 0.01 0.02 0.06 0.04 0.01 0.00 0.00 0.00 0.00 0.01 0.02 0.02 0.02 0.04 0.07 0.08 0.12 0.17 0.18 0.18 0.15 0.16 0.15 0.15 0.13 0.12 0.11 0.09 0.08
0.00 0.00 0.00 0.00 0.00 0.00 0.00 0.00 0.01 0.02 0.03 0.04 0.05 0.06 0.03 0.01 0.00 0.01 0.00 0.00 0.00 0.00 0.00 0.00 0.01 0.01 0.01 0.01 0.02 0.05 0.07 0.10 0.13 0.16 0.18 0.18 0.18 0.16 0.14 0.14 0.13 0.11 0.08 0.07
0.00 0.00 0.00 0.00 0.00 0.00 0.00 0.00 0.01 0.02 0.01 0.03 0.05 0.04 0.02 0.01 0.01 0.01 0.01 0.01 0.00 0.00 0.01 0.01 0.01 0.01 0.00 0.01 0.02 0.04 0.07 0.10 0.10 0.14 0.16 0.16 0.14 0.14 0.14 0.15 0.13 0.10 0.08 0.06
0.00 0.00 0.00 0.00 0.00 0.00 0.00 0.00 0.01 0.02 0.02 0.02 0.03 0.04 0.07 0.10 0.05 0.03 0.02 0.01 0.00 0.01 0.01 0.02 0.02 0.02 0.01 0.01 0.03 0.05 0.08 0.11 0.12 0.13 0.13 0.11 0.12 0.11 0.12 0.10 0.11 0.12 0.10 0.08
0.00 0.00 0.00 0.00 0.00 0.00 0.00 0.00 0.00 0.00 0.00 0.01 0.05 0.08 0.08 0.11 0.08 0.03 0.01 0.00 0.00 0.01 0.01 0.01 0.01 0.01 0.01 0.01 0.02 0.04 0.07 0.10 0.13 0.13 0.13 0.12 0.13 0.14 0.13 0.10 0.09 0.12 0.12 0.09
0.00 0.00 0.00 0.01 0.01 0.00 0.00 0.00 0.00 0.00 0.00 0.00 0.03 0.07 0.06 0.07 0.09 0.04 0.01 0.00 0.00 0.01 0.01 0.01 0.00 0.01 0.01 0.01 0.01 0.03 0.04 0.06 0.08 0.10 0.11 0.12 0.12 0.14 0.13 0.11 0.10 0.11 0.10 0.08
0.00 0.00 0.01 0.01 0.02 0.01 0.00 0.00 0.00 0.00 0.00 0.00 0.02 0.04 0.04 0.10 0.15 0.06 0.01 0.00 0.00 0.00 0.00 0.00 0.00 0.01 0.01 0.00 0.01 0.01 0.02 0.03 0.06 0.08 0.08 0.08 0.10 0.10 0.11 0.12 0.11 0.10 0.10 0.08
0.00 0.00 0.01 0.02 0.02 0.03 0.02 0.01 0.00 0.00 0.00 0.00 0.00 0.02 0.06 0.12 0.08 0.03 0.01 0.00 0.00 0.00 0.00 0.00 0.01 0.02 0.01 0.01 0.01 0.01 0.01 0.03 0.05 0.07 0.07 0.07 0.08 0.09 0.09 0.09 0.10 0.10 0.10 0.09
0.00 0.00 0.00 0.01 0.02 0.03 0.04 0.02 0.01 0.00 0.00 0.00 0.00 0.02 0.04 0.09 0.08 0.04 0.04 0.01 0.00 0.00 0.00 0.00 0.02 0.02 0.01 0.01 0.02 0.02 0.02 0.02 0.04 0.06 0.06 0.06 0.07 0.07 0.07 0.07 0.08 0.10 0.09 0.09
0.00 0.00 0.00 0.00 0.01 0.02 0.01 0.01 0.00 0.00 0.00 0.00 0.00 0.01 0.02 0.04 0.07 0.04 0.02 0.01 0.01 0.00 0.01 0.01 0.01 0.02 0.03 0.03 0.03 0.03 0.03 0.02 0.04 0.06 0.06 0.07 0.09 0.09 0.08 0.07 0.08 0.09 0.08 0.09
0.00 0.00 0.00 0.00 0.00 0.01 0.01 0.00 0.00 0.00 0.00 0.00 0.01 0.01 0.01 0.03 0.04 0.03 0.02 0.03 0.03 0.01 0.01 0.02 0.03 0.05 0.04 0.03 0.03 0.04 0.04 0.04 0.06 0.08 0.09 0.11 0.11 0.12 0.11 0.08 0.10 0.10 0.10 0.11
0.00 0.00 0.01 0.00 0.01 0.01 0.01 0.00 0.00 0.00 0.00 0.00 0.01 0.01 0.01 0.02 0.03 0.04 0.02 0.03 0.05 0.04 0.02 0.02 0.03 0.05 0.03 0.02 0.02 0.03 0.03 0.04 0.06 0.07 0.07 0.09 0.09 0.10 0.12 0.12 0.11 0.13 0.14 0.13
0.01 0.02 0.02 0.01 0.02 0.02 0.02 0.01 0.01 0.01 0.01 0.01 0.01 0.01 0.01 0.02 0.02 0.04 0.02 0.01 0.03 0.04 0.05 0.05 0.03 0.03 0.03 0.02 0.02 0.02 0.04 0.04 0.06 0.06 0.07 0.07 0.07 0.09 0.11 0.12 0.13 0.14 0.14 0.13
0.02 0.03 0.03 0.02 0.03 0.04 0.05 0.01 0.01 0.01 0.04 0.04 0.02 0.01 0.02 0.04 0.08 0.09 0.03 0.01 0.02 0.03 0.04 0.08 0.10 0.06 0.05 0.04 0.04 0.06 0.06 0.07 0.07 0.07 0.07 0.07 0.06 0.07 0.08 0.09 0.10 0.11 0.13 0.13
0.05 0.05 0.05 0.05 0.05 0.05 0.03 0.01 0.01 0.05 0.10 0.05 0.02 0.03 0.03 0.06 0.09 0.08 0.04 0.02 0.02 0.04 0.04 0.06 0.07 0.07 0.07 0.06 0.06 0.08 0.08 0.07 0.07 0.06 0.05 0.05 0.06 0.06 0.07 0.08 0.08 0.09 0.10 0.11
0.06 0.06 0.06 0.06 0.07 0.08 0.03 0.01 0.05 0.08 0.05 0.03 0.03 0.04 0.05 0.05 0.05 0.04 0.03 0.03 0.03 0.04 0.05 0.05 0.06 0.07 0.08 0.07 0.07 0.08 0.08 0.07 0.07 0.07 0.07 0.08 0.08 0.08 0.08 0.08 0.08 0.08 0.08 0.10
0.05 0.06 0.06 0.06 0.07 0.08 0.04 0.03 0.04 0.04 0.04 0.04 0.04 0.06 0.06 0.05 0.05 0.05 0.04 0.05 0.04 0.04 0.05 0.05 0.06 0.08 0.09 0.09 0.09 0.09 0.09 0.09 0.09 0.10 0.11 0.11 0.12 0.14 0.18 0.22 0.23 0.20 0.15 0.13
0.04 0.03 0.04 0.05 0.06 0.06 0.04 0.03 0.04 0.04 0.05 0.06 0.05 0.07 0.09 0.06 0.07 0.05 0.04 0.05 0.05 0.05 0.05 0.05 0.06 0.08 0.09 0.09 0.10 0.09 0.10 0.12 0.12 0.13 0.12 0.12 0.12 0.14 0.16 0.18 0.16 0.14 0.12 0.10
0.05 0.04 0.05 0.07 0.08 0.07 0.05 0.04 0.05 0.05 0.06 0.06 0.07 0.09 0.10 0.09 0.07 0.04 0.04 0.06 0.07 0.06 0.05 0.05 0.05 0.06 0.05 0.06 0.08 0.09 0.09 0.10 0.11 0.11 0.09 0.07 0.07 0.07 0.07 0.07 0.07 0.08 0.08 0.07
0.04 0.05 0.09 0.12 0.10 0.07 0.07 0.06 0.07 0.06 0.07 0.08 0.10 0.11 0.10 0.08 0.06 0.06 0.07 0.06 0.07 0.07 0.06 0.05 0.04 0.04 0.04 0.04 0.04 0.05 0.06 0.08 0.08 0.08 0.07 0.07 0.06 0.05 0.05 0.05 0.03 0.03 0.03 0.04
MSLP
1006.59 1007.02 1007.20 1007.15 1006.95 1006.66 1006.36 1006.10 1005.88 1005.71 1005.53 1005.31 1004.99 1004.58 1004.07 1003.52 1003.01 1002.59 1002.36 1002.35 1002.58 1003.04 1003.69 1004.48 1005.32 1006.18 1007.01 1007.79 1008.51 1009.17 1009.80 1010.38 1010.94 1011.45 1011.91 1012.31 1012.64 1012.90 1013.11 1013.30 1013.49 1013.70 1013.96 1014.27
1006.99 1007.23 1007.21 1006.99 1006.68 1006.36 1006.11 1005.97 1005.94 1005.98 1006.00 1005.93 1005.72 1005.34 1004.79 1004.15 1003.50 1002.95 1002.57 1002.45 1002.60 1003.01 1003.65 1004.44 1005.31 1006.19 1007.04 1007.83 1008.57 1009.26 1009.91 1010.53 1011.11 1011.66 1012.14 1012.54 1012.85 1013.07 1013.22 1013.33 1013.43 1013.57 1013.77 1014.06
1007.11 1007.13 1006.91 1006.55 1006.16 1005.86 1005.71 1005.77 1005.98 1006.27 1006.54 1006.68 1006.60 1006.27 1005.69 1004.95 1004.15 1003.43 1002.88 1002.60 1002.62 1002.94 1003.52 1004.28 1005.14 1006.02 1006.88 1007.68 1008.43 1009.14 1009.82 1010.47 1011.10 1011.68 1012.20 1012.63 1012.94 1013.15 1013.27 1013.33 1013.39 1013.48 1013.65 1013.91
1006.88 1006.70 1006.32 1005.85 1005.45 1005.22 1005.25 1005.54 1006.04 1006.63 1007.17 1007.53 1007.59 1007.31 1006.71 1005.86 1004.91 1003.99 1003.24 1002.77 1002.63 1002.83 1003.31 1004.01 1004.83 1005.69 1006.54 1007.35 1008.10 1008.81 1009.50 1010.17 1010.83 1011.45 1012.01 1012.47 1012.83 1013.06 1013.20 1013.27 1013.32 1013.41 1013.56 1013.81
1006.37 1006.02 1005.52 1005.02 1004.66 1004.57 1004.81 1005.37 1006.17 1007.06 1007.86 1008.42 1008.61 1008.37 1007.74 1006.78 1005.65 1004.54 1003.59 1002.92 1002.61 1002.67 1003.05 1003.67 1004.44 1005.27 1006.10 1006.88 1007.61 1008.30 1008.98 1009.64 1010.31 1010.95 1011.54 1012.05 1012.47 1012.77 1012.96 1013.09 1013.19 1013.31 1013.49 1013.75
1005.66 1005.21 1004.66 1004.18 1003.92 1004.01 1004.47 1005.30 1006.38 1007.53 1008.55 1009.27 1009.55 1009.33 1008.64 1007.56 1006.28 1004.99 1003.85 1003.01 1002.55 1002.48 1002.76 1003.32 1004.04 1004.83 1005.62 1006.36 1007.05 1007.70 1008.32 1008.95 1009.59 1010.22 1010.84 1011.40 1011.88 1012.27 1012.56 1012.78 1012.97 1013.16 1013.38 1013.67
1004.87 1004.38 1003.86 1003.47 1003.36 1003.63 1004.31 1005.37 1006.66 1007.99 1009.15 1009.96 1010.27 1010.03 1009.27 1008.09 1006.68 1005.24 1003.96 1002.99 1002.42 1002.26 1002.48 1003.00 1003.68 1004.45 1005.20 1005.90 1006.53 1007.11 1007.66 1008.21 1008.79 1009.39 1010.00 1010.59 1011.14 1011.62 1012.03 1012.36 1012.66 1012.94 1013.24 1013.57
1004.11 1003.66 1003.23 1002.98 1003.03 1003.48 1004.34 1005.55 1006.96 1008.38 1009.58 1010.39 1010.67 1010.37 1009.53 1008.25 1006.75 1005.22 1003.86 1002.83 1002.21 1002.02 1002.23 1002.73 1003.42 1004.17 1004.90 1005.56 1006.13 1006.63 1007.09 1007.56 1008.05 1008.60 1009.18 1009.78 1010.38 1010.94 1011.44 1011.90 1012.30 1012.68 1013.05 1013.43
1003.47 1003.13 1002.85 1002.76 1002.98 1003.57 1004.54 1005.82 1007.24 1008.62 1009.76 1010.48 1010.67 1010.27 1009.35 1008.01 1006.46 1004.91 1003.55 1002.52 1001.92 1001.76 1002.00 1002.54 1003.25 1004.02 1004.75 1005.39 1005.92 1006.35 1006.73 1007.10 1007.51 1007.98 1008.52 1009.11 1009.72 1010.34 1010.93 1011.47 1011.97 1012.43 1012.87 1013.28
1003.00 1002.82 1002.72 1002.81 1003.18 1003.87 1004.87 1006.11 1007.44 1008.68 1009.66 1010.22 1010.26 1009.75 1008.76 1007.39 1005.86 1004.35 1003.05 1002.10 1001.58 1001.51 1001.82 1002.42 1003.19 1004.00 1004.75 1005.40 1005.91 1006.30 1006.62 1006.92 1007.25 1007.65 1008.13 1008.69 1009.31 1009.95 1010.59 1011.19 1011.75 1012.27 1012.74 1013.17
1002.71 1002.73 1002.83 1003.09 1003.57 1004.30 1005.26 1006.37 1007.51 1008.53 1009.28 1009.62 1009.49 1008.88 1007.85 1006.51 1005.05 1003.65 1002.48 1001.66 1001.26 1001.28 1001.69 1002.37 1003.19 1004.06 1004.85 1005.52 1006.05 1006.44 1006.74 1007.01 1007.30 1007.65 1008.09 1008.62 1009.21 1009.85 1010.49 1011.12 1011.70 1012.23 1012.71 1013.14
1002.59 1002.83 1003.13 1003.54 1004.10 1004.82 1005.67 1006.59 1007.48 1008.22 1008.70 1008.82 1008.53 1007.83 1006.80 1005.53 1004.20 1002.96 1001.95 1001.28 1001.02 1001.15 1001.63 1002.36 1003.23 1004.13 1004.97 1005.68 1006.24 1006.67 1007.00 1007.28 1007.57 1007.91 1008.33 1008.83 1009.40 1010.02 1010.64 1011.25 1011.82 1012.33 1012.78 1013.18
1002.65 1003.09 1003.57 1004.10 1004.70 1005.35 1006.06 1006.75 1007.36 1007.81 1008.02 1007.93 1007.51 1006.78 1005.79 1004.65 1003.49 1002.43 1001.61 1001.10 1000.94 1001.15 1001.66 1002.41 1003.28 1004.18 1005.03 1005.77 1006.38 1006.87 1007.26 1007.60 1007.94 1008.31 1008.74 1009.23 1009.78 1010.37 1010.95 1011.52 1012.05 1012.51 1012.92 1013.27
1002.86 1003.48 1004.11 1004.72 1005.31 1005.89 1006.41 1006.87 1007.21 1007.39 1007.36 1007.10 1006.60 1005.88 1005.00 1004.02 1003.06 1002.21 1001.56 1001.18 1001.10 1001.32 1001.81 1002.50 1003.31 1004.15 1004.97 1005.72 1006.37 1006.93 1007.40 1007.83 1008.25 1008.68 1009.15 1009.65 1010.19 1010.75 1011.29 1011.81 1012.27 1012.68 1013.03 1013.32
1003.22 1003.98 1004.70 1005.35 1005.92 1006.38 1006.73 1006.96 1007.06 1007.00 1006.80 1006.43 1005.91 1005.26 1004.51 1003.74 1002.99 1002.35 1001.86 1001.58 1001.53 1001.70 1002.09 1002.65 1003.32 1004.04 1004.78 1005.49 1006.15 1006.75 1007.31 1007.83 1008.34 1008.86 1009.38 1009.92 1010.46 1011.00 1011.50 1011.96 1012.37 1012.72 1013.00 1013.24
1003.70 1004.54 1005.31 1005.96 1006.47 1006.81 1007.00 1007.03 1006.92 1006.70 1006.37 1005.96 1005.47 1004.94 1004.38 1003.82 1003.29 1002.84 1002.49 1002.27 1002.19 1002.27 1002.51 1002.87 1003.33 1003.87 1004.46 1005.08 1005.70 1006.32 1006.94 1007.54 1008.15 1008.75 1009.34 1009.91 1010.47 1010.99 1011.46 1011.88 1012.24 1012.53 1012.77 1012.97
1004.27 1005.12 1005.88 1006.50 1006.92 1007.15 1007.19 1007.06 1006.80 1006.47 1006.08 1005.68 1005.28 1004.89 1004.53 1004.19 1003.89 1003.61 1003.37 1003.18 1003.05 1003.00 1003.03 1003.15 1003.37 1003.68 1004.08 1004.55 1005.10 1005.69 1006.33 1006.99 1007.66 1008.33 1008.98 1009.59 1010.16 1010.68 1011.13 1011.52 1011.84 1012.10 1012.31 1012.47
1004.84 1005.66 1006.36 1006.89 1007.23 1007.34 1007.25 1007.01 1006.66 1006.27 1005.88 1005.53 1005.25 1005.03 1004.88 1004.75 1004.64 1004.52 1004.37 1004.20 1004.00 1003.80 1003.63 1003.51 1003.47 1003.54 1003.72 1004.03 1004.46 1004.99 1005.61 1006.28 1006.99 1007.69 1008.38 1009.02 1009.60 1010.11 1010.55 1010.91 1011.22 1011.46 1011.66 1011.82
1005.35 1006.06 1006.67 1007.10 1007.33 1007.34 1007.16 1006.85 1006.46 1006.06 1005.71 1005.45 1005.30 1005.25 1005.28 1005.35 1005.42 1005.43 1005.36 1005.20 1004.95 1004.63 1004.27 1003.94 1003.67 1003.51 1003.50 1003.63 1003.93 1004.37 1004.94 1005.59 1006.29 1007.01 1007.70 1008.34 1008.92 1009.42 1009.85 1010.21 1010.50 1010.75 1010.95 1011.12
1005.70 1006.28 1006.76 1007.07 1007.20 1007.13 1006.90 1006.55 1006.16 1005.80 1005.52 1005.36 1005.34 1005.45 1005.65 1005.88 1006.09 1006.22 1006.22 1006.08 1005.80 1005.40 1004.93 1004.44 1004.01 1003.67 1003.49 1003.48 1003.66 1004.01 1004.50 1005.11 1005.77 1006.46 1007.13 1007.75 1008.31 1008.80 1009.22 1009.57 1009.86 1010.11 1010.34 1010.53
1005.86 1006.28 1006.61 1006.81 1006.85 1006.73 1006.48 1006.14 1005.79 1005.49 1005.30 1005.25 1005.36 1005.59 1005.92 1006.28 1006.61 1006.83 1006.90 1006.80 1006.52 1006.10 1005.58 1005.02 1004.49 1004.06 1003.78 1003.67 1003.75 1004.02 1004.44 1004.97 1005.58 1006.21 1006.84 1007.42 1007.95 1008.41 1008.81 1009.15 1009.44 1009.71 1009.95 1010.18
1005.81 1006.07 1006.26 1006.36 1006.33 1006.19 1005.95 1005.66 1005.39 1005.18 1005.09 1005.15 1005.36 1005.70 1006.12 1006.57 1006.97 1007.26 1007.40 1007.35 1007.13 1006.74 1006.24 1005.68 1005.15 1004.70 1004.38 1004.23 1004.26 1004.45 1004.81 1005.27 1005.80 1006.36 1006.92 1007.44 1007.92 1008.34 1008.71 1009.03 1009.33 1009.60 1009.86 1010.11
1005.60 1005.71 1005.78 1005.79 1005.73 1005.59 1005.40 1005.20 1005.02 1004.93 1004.95 1005.11 1005.40 1005.81 1006.30 1006.80 1007.25 1007.59 1007.79 1007.81 1007.66 1007.35 1006.93 1006.45 1005.98 1005.58 1005.29 1005.14 1005.14 1005.30 1005.59 1005.98 1006.42 1006.90 1007.37 1007.82 1008.23 1008.60 1008.93 1009.23 1009.51 1009.79 1010.06 1010.32
1005.32 1005.31 1005.28 1005.23 1005.16 1005.05 1004.94 1004.84 1004.78 1004.81 1004.94 1005.20 1005.56 1006.02 1006.54 1007.06 1007.54 1007.92 1008.16 1008.25 1008.19 1007.99 1007.69 1007.33 1006.98 1006.66 1006.44 1006.32 1006.33 1006.46 1006.69 1007.00 1007.35 1007.73 1008.11 1008.47 1008.80 1009.10 1009.38 1009.65 1009.91 1010.18 1010.45 1010.73
1005.10 1004.98 1004.88 1004.80 1004.74 1004.68 1004.65 1004.66 1004.74 1004.89 1005.13 1005.47 1005.90 1006.39 1006.92 1007.45 1007.93 1008.33 1008.62 1008.78 1008.81 1008.73 1008.55 1008.34 1008.10 1007.90 1007.75 1007.68 1007.70 1007.79 1007.96 1008.19 1008.44 1008.71 1008.98 1009.24 1009.49 1009.72 1009.95 1010.18 1010.41 1010.66 1010.91 1011.18
1005.04 1004.86 1004.71 1004.61 1004.56 1004.56 1004.61 1004.73 1004.92 1005.19 1005.53 1005.95 1006.43 1006.95 1007.49 1008.02 1008.50 1008.91 1009.23 1009.45 1009.56 1009.59 1009.54 1009.45 1009.33 1009.22 1009.14 1009.10 1009.11 1009.16 1009.26 1009.38 1009.53 1009.68 1009.84 1010.00 1010.16 1010.32 1010.49 1010.67 1010.87 1011.09 1011.33 1011.58
Thickness
5810 5797 5792 5803 5814 5817 5820 5818 5817 5830 5849 5840 5831 5832 5839 5842 5838 5831 5829 5828 5821 5815 5815 5811 5804 5797 5790 5783 5776 5770 5765 5763 5759 5755 5751 5749 5750 5752 5754 5754 5753 5753 5754 5754
5795 5791 5807 5818 5822 5820 5816 5811 5816 5831 5845 5838 5828 5828 5839 5840 5833 5831 5828 5825 5820 5813 5808 5805 5799 5793 5786 5778 5772 5768 5764 5760 5757 5755 5752 5750 5750 5751 5753 5753 5752 5752 5753 5753
5788 5805 5820 5814 5811 5808 5809 5809 5813 5820 5833 5837 5825 5816 5824 5829 5829 5826 5827 5827 5823 5815 5807 5801 5795 5789 5783 5775 5770 5767 5763 5759 5756 5754 5751 5749 5748 5748 5749 5748 5749 5750 5751 5751
5797 5814 5816 5809 5807 5808 5800 5820 5820 5819 5812 5807 5813 5791 5807 5812 5807 5809 5814 5823 5821 5817 5811 5803 5795 5787 5781 5776 5771 5767 5761 5758 5755 5753 5750 5747 5744 5743 5747 5748 5748 5749 5750 5750
5797 5809 5808 5803 5810 5815 5811 5826 5821 5817 5809 5801 5806 5789 5795 5805 5794 5797 5809 5818 5821 5819 5813 5804 5796 5788 5783 5777 5771 5765 5759 5755 5754 5752 5750 5747 5745 5745 5747 5748 5747 5747 5748 5749
5807 5823 5820 5817 5823 5825 5822 5816 5812 5810 5801 5778 5788 5781 5782 5796 5799 5805 5814 5819 5819 5819 5813 5805 5798 5789 5782 5776 5770 5764 5758 5754 5752 5750 5748 5746 5745 5745 5744 5745 5745 5745 5746 5747
5792 5808 5823 5826 5811 5817 5813 5792 5772 5767 5767 5766 5782 5777 5786 5812 5822 5821 5818 5820 5822 5819 5811 5802 5794 5786 5780 5774 5769 5764 5757 5753 5751 5748 5747 5746 5746 5745 5744 5745 5745 5744 5745 5746
5777 5783 5811 5820 5810 5804 5805 5796 5768 5752 5755 5758 5765 5757 5785 5822 5830 5831 5828 5826 5823 5817 5811 5802 5795 5788 5781 5775 5769 5764 5758 5753 5751 5748 5747 5747 5746 5746 5746 5747 5747 5746 5746 5748
5786 5787 5819 5825 5825 5815 5800 5798 5806 5785 5776 5765 5761 5769 5790 5814 5819 5819 5822 5820 5818 5815 5810 5803 5796 5789 5782 5775 5769 5765 5759 5754 5751 5749 5747 5746 5746 5746 5747 5747 5747 5748 5748 5749
5799 5787 5809 5821 5821 5818 5815 5808 5796 5780 5758 5750 5762 5761 5764 5783 5794 5805 5811 5813 5815 5815 5810 5804 5797 5790 5784 5777 5771 5766 5760 5754 5752 5750 5748 5747 5746 5746 5747 5746 5746 5747 5748 5749
5800 5783 5793 5806 5798 5796 5800 5797 5792 5787 5784 5761 5750 5755 5781 5778 5790 5798 5808 5815 5815 5814 5810 5804 5797 5791 5785 5778 5771 5765 5759 5754 5751 5749 5748 5747 5745 5746 5746 5746 5746 5747 5747 5747
5797 5787 5778 5791 5812 5817 5807 5800 5793 5772 5771 5778 5764 5762 5796 5791 5792 5803 5811 5816 5817 5814 5810 5804 5798 5791 5784 5777 5772 5766 5760 5755 5752 5750 5748 5747 5746 5746 5745 5745 5746 5746 5746 5746
5789 5776 5758 5765 5783 5797 5797 5799 5799 5795 5785 5776 5766 5762 5796 5795 5791 5803 5812 5813 5814 5811 5807 5802 5795 5788 5782 5777 5772 5767 5762 5758 5755 5752 5749 5747 5746 5745 5744 5744 5745 5746 5745 5744
5785 5769 5759 5751 5758 5769 5773 5783 5790 5786 5775 5774 5776 5770 5782 5788 5787 5797 5803 5810 5811 5807 5802 5798 5791 5786 5782 5777 5772 5767 5763 5760 5757 5754 5751 5748 5747 5745 5744 5744 5745 5744 5744 5743
5775 5760 5764 5769 5773 5769 5767 5771 5780 5780 5783 5777 5780 5778 5779 5785 5787 5792 5799 5805 5806 5801 5798 5794 5788 5784 5780 5775 5771 5768 5764 5761 5758 5754 5750 5748 5748 5747 5745 5744 5743 5743 5742 5742
5764 5752 5756 5755 5765 5766 5761 5768 5773 5777 5784 5785 5785 5781 5793 5795 5791 5792 5794 5799 5797 5795 5795 5792 5787 5782 5777 5772 5769 5766 5763 5761 5758 5754 5750 5748 5747 5745 5743 5743 5742 5740 5739 5738
5752 5744 5739 5741 5754 5751 5742 5764 5772 5778 5784 5784 5773 5777 5786 5781 5778 5779 5787 5790 5790 5789 5789 5787 5783 5779 5776 5772 5769 5765 5763 5761 5757 5753 5749 5747 5744 5742 5740 5740 5738 5736 5735 5734
5739 5735 5734 5735 5737 5721 5754 5781 5780 5775 5778 5783 5780 5781 5781 5778 5777 5776 5780 5781 5781 5783 5782 5782 5781 5778 5775 5773 5769 5765 5762 5758 5754 5750 5747 5744 5742 5740 5738 5736 5734 5733 5731 5728
5742 5730 5724 5724 5722 5731 5752 5762 5764 5760 5757 5768 5768 5769 5771 5774 5769 5760 5766 5771 5772 5773 5775 5776 5778 5777 5773 5770 5766 5762 5757 5754 5750 5746 5743 5742 5740 5736 5734 5731 5730 5728 5725 5723
5736 5730 5718 5715 5708 5708 5730 5753 5764 5755 5736 5753 5758 5756 5759 5759 5746 5741 5752 5756 5759 5762 5766 5767 5769 5769 5766 5764 5762 5756 5751 5747 5744 5742 5740 5738 5736 5732 5729 5727 5725 5724 5721 5718
5710 5708 5707 5707 5704 5712 5729 5744 5748 5722 5718 5739 5745 5745 5745 5739 5736 5738 5743 5744 5747 5749 5752 5756 5757 5755 5755 5756 5754 5748 5744 5739 5738 5737 5735 5733 5730 5727 5724 5721 5719 5717 5714 5710
5696 5696 5699 5702 5695 5695 5722 5729 5717 5713 5728 5733 5734 5734 5733 5731 5732 5731 5731 5732 5734 5735 5738 5741 5741 5741 5743 5745 5743 5737 5733 5732 5732 5730 5727 5723 5721 5720 5717 5713 5710 5708 5705 5701
5693 5696 5696 5694 5692 5703 5713 5712 5716 5721 5719 5721 5722 5723 5723 5721 5718 5718 5719 5719 5720 5722 5724 5726 5727 5726 5727 5729 5729 5724 5722 5723 5722 5719 5716 5713 5710 5708 5707 5703 5700 5698 5695 5692
5692 5701 5695 5689 5693 5697 5700 5704 5706 5709 5708 5711 5712 5712 5712 5709 5706 5705 5705 5705 5706 5707 5709 5711 5712 5710 5710 5711 5712 5711 5711 5711 5710 5706 5704 5702 5699 5696 5694 5692 5690 5686 5683 5680
5681 5686 5684 5680 5683 5685 5686 5688 5692 5694 5696 5697 5699 5700 5699 5696 5693 5692 5692 5691 5692 5693 5695 5696 5696 5695 5694 5695 5696 5697 5698 5698 5695 5693 5691 5689 5687 5683 5679 5676 5672 5672 5667 5667
5676 5675 5672 5667 5672 5671 5669 5675 5680 5680 5680 5682 5683 5682 5682 5682 5678 5677 5676 5676 5678 5679 5680 5681 5681 5680 5681 5681 5681 5682 5684 5684 5682 5680 5678 5678 5676 5673 5670 5665 5660 5655 5654 5651